Lambert St Louis International Airport St Louis US
ICAO: KSTL
IATA: STL
Category: Large
Scheduled Services: Yes

Elevation: 618 ft
TransAlt. 18000 ft.

Airport Communications:
ST LOUIS APP:28.91
ST LOUIS APP:120.05
ATIS:125.025
CLNC DEL:119.5
ST LOUIS DEP:119.15
ST LOUIS GND:22.712
ST LOUIS GND:118.925
ANG OPS:29.79
ST LOUIS RDO:122.05
ST LOUIS TWR:28.46
ST LOUIS TWR:118.5
UNICOM:122.95

KSTL Zoom In..

Runways:

(A) RW 06 length 7607 ft width 150 ft
ILS 110.30 / hdg 63

(B) RW 11 length 9001 ft width 150 ft
ILS 111.95 / hdg 122

(C) RW 12L length 9003 ft width 150 ft
ILS 108.90 / hdg 122

(D) RW 12R length 11019 ft width 200 ft
ILS 109.70 / hdg 122

(E) RW 24 length 7607 ft width 150 ft
ILS 110.30 / hdg 243

(F) RW 29 length 9001 ft width 150 ft
ILS 111.95 / hdg 302

(G) RW 30L length 11019 ft width 200 ft
ILS 111.50 / hdg 302

(H) RW 30R length 9003 ft width 150 ft
ILS 111.30 / hdg 302

Location; KSTL
Day. 14 / Time. 00.51 Zulu
* Altimeter: 29.99
* Temperature: 27° c. 80.6°f.
* Wind from: 090° Speed 04 kn.
Dewpoint: 22° c.
Visibility: 10 Statute Miles.
Clouds: Few 4000 ft.
Clouds: Few 8000 ft.
Clouds: Scattered 25000 ft.
Conditions: Towering CB.

KSTL 140051Z 09004KT 10SM FEW040TCU FEW080 SCT250 27/22 A2999 RMK AO2 SLP144 TCU SE T02720217

Going to: --> -->


Wind From 090°
Speed 04 kn.

 
 
jpsmedia worldairports.se 2020   terms of use